Theta_e
344 349 357 355 354 352 352 351 354 358 357 357 356 354 355 353 352 352 350 351 352 352 352 352 352 351 350 347 347 348 348 347 347 346 346 347 347 348 349 347 347 341 346
347 350 356 356 354 352 352 353 353 357 357 356 357 353 354 353 351 352 354 352 352 352 352 350 352 349 347 346 345 344 344 343 343 345 343 343 345 346 347 347 347 343 348
347 349 353 356 355 354 354 354 353 356 357 357 357 355 354 352 350 352 352 353 352 352 350 349 351 348 345 343 343 340 338 336 338 342 342 334 336 344 345 345 349 348 349
347 348 349 355 355 353 353 354 353 354 357 356 357 356 355 352 350 351 352 354 352 349 349 351 349 345 343 340 338 336 336 335 337 338 329 330 335 341 342 343 345 346 345
347 347 349 355 354 353 354 354 353 354 356 356 355 355 354 353 349 349 353 353 349 345 346 349 347 345 342 339 338 337 336 337 340 335 330 329 330 338 342 341 341 342 342
346 347 352 354 354 353 354 353 353 354 354 355 354 354 353 353 351 352 352 349 347 348 348 347 347 344 340 340 338 337 336 337 338 329 329 336 332 339 339 339 339 339 340
345 347 349 353 353 353 353 353 353 354 354 354 354 352 351 352 350 351 350 348 346 348 350 347 346 344 340 340 338 335 334 337 330 329 330 330 332 339 338 337 337 336 336
344 347 348 350 352 352 352 352 352 354 354 353 352 351 351 350 345 349 347 345 346 347 348 347 346 345 342 340 338 335 336 335 331 329 330 331 339 338 337 336 336 336 335
345 346 345 347 348 349 350 349 350 352 352 351 350 349 348 347 343 344 345 345 346 347 346 346 345 345 344 341 338 336 335 334 328 328 332 331 340 338 337 336 335 335 335
331 326 329 345 345 345 344 345 346 347 348 348 347 345 342 341 342 343 344 344 346 346 345 345 342 341 340 340 338 338 335 334 326 328 331 332 338 336 336 335 334 333 333
328 326 327 326 340 340 343 341 343 344 344 343 342 339 338 338 339 338 339 341 344 344 343 341 340 339 338 335 335 334 332 326 325 327 329 340 338 336 334 333 332 332 331
323 324 326 327 328 337 343 339 337 341 342 341 339 337 336 335 336 336 337 339 342 342 341 340 338 337 333 325 325 329 323 324 322 324 329 339 339 339 337 335 333 333 332
322 324 325 325 326 326 340 338 334 336 338 338 336 337 334 334 332 335 334 338 337 334 334 335 332 328 323 322 323 321 321 322 321 323 331 337 337 337 339 339 340 338 337
321 322 325 325 325 326 332 336 332 329 329 331 334 331 332 331 332 333 332 331 331 330 328 329 328 326 324 323 322 323 323 323 325 325 327 333 337 336 337 339 340 341 341
320 321 323 325 326 327 329 338 331 329 329 330 329 329 330 331 328 331 331 331 329 328 326 326 324 323 323 322 323 325 325 326 327 328 322 328 332 335 335 336 337 339 341
323 321 324 326 328 331 332 336 330 329 328 331 329 330 329 330 327 326 327 327 326 325 325 324 321 320 320 323 324 325 325 326 328 329 327 325 331 334 337 339 340 340 341
323 327 328 327 331 332 332 336 336 332 330 328 326 326 326 327 325 325 324 324 325 327 327 325 323 323 322 325 323 324 325 326 329 329 331 331 330 330 335 340 340 340 340
325 327 330 332 330 330 332 334 335 337 334 332 329 329 328 329 328 327 327 329 331 330 328 326 325 324 324 324 322 322 323 327 328 329 329 326 327 331 331 336 339 339 337
325 326 327 326 325 325 330 333 335 336 336 338 336 333 333 332 331 331 331 332 332 330 328 328 327 326 324 324 323 321 324 328 328 327 325 327 329 328 327 330 332 332 334
326 326 327 327 323 323 331 333 333 333 335 335 335 338 337 336 335 332 331 331 331 330 329 328 326 325 324 324 325 323 327 328 326 325 327 328 327 325 324 324 324 325 328
324 325 326 325 330 330 329 328 329 329 329 330 332 333 336 334 334 331 332 331 330 329 329 328 328 326 325 325 325 325 326 325 324 327 325 321 322 323 322 321 321 322 325
322 323 326 325 326 329 331 330 331 329 329 329 331 332 334 335 335 334 333 332 331 328 327 326 327 326 327 329 323 321 317 320 323 323 321 321 319 320 320 319 320 321 321
320 323 324 324 325 328 328 329 329 329 328 331 332 331 333 332 332 332 333 332 329 328 326 325 327 326 325 327 328 323 316 311 316 319 320 320 317 317 317 319 318 318 319
321 324 324 324 326 327 328 326 324 323 322 325 326 328 329 331 331 333 333 332 329 328 326 327 327 324 323 322 323 325 322 319 313 311 317 317 318 317 314 317 315 316 317
322 323 325 324 324 326 327 327 325 323 324 326 326 325 327 329 330 331 332 331 330 329 328 326 324 322 322 320 319 319 318 319 318 313 310 314 314 314 315 314 314 313 315
320 321 322 323 324 324 325 326 325 324 324 323 323 323 324 327 328 330 330 330 330 329 329 328 325 323 322 321 320 321 319 317 315 314 313 312 308 310 312 313 312 312 312
Wind_Speed
15 18 18 17 16 15 14 14 13 11 15 16 17 17 17 16 15 16 15 16 14 14 17 16 16 18 18 17 16 15 15 15 15 16 16 15 15 17 19 13 14 10 13
20 19 20 17 16 15 14 12 12 12 14 16 16 17 17 17 15 15 14 15 16 16 17 17 17 18 16 16 14 13 12 11 11 11 14 12 12 16 18 14 13 11 12
18 18 18 18 16 14 13 12 12 12 15 16 17 17 17 17 17 15 15 16 16 16 18 16 18 17 15 14 13 11 8 6 5 4 2 6 6 14 15 16 14 13 16
18 16 15 18 16 14 13 13 12 13 15 16 17 18 18 18 17 16 14 14 16 15 14 15 17 16 14 13 12 10 6 3 4 6 2 7 8 12 13 13 14 17 16
17 16 14 17 17 14 13 13 12 13 14 17 17 18 18 18 17 17 13 14 18 15 14 13 16 14 13 12 11 9 4 6 9 10 8 7 6 10 12 13 12 13 13
16 15 20 17 16 14 13 13 13 13 14 16 17 17 18 18 16 15 12 14 17 13 12 13 14 13 12 12 10 6 3 4 7 7 7 10 6 11 12 12 12 12 11
13 13 17 20 16 15 13 12 12 13 14 16 17 19 19 19 16 14 13 15 15 11 14 14 13 12 11 10 8 4 2 6 3 7 7 6 5 11 11 11 11 11 11
10 14 15 19 17 15 12 12 10 12 15 16 16 18 19 19 19 14 15 16 14 12 13 13 12 11 10 9 7 2 5 7 4 7 8 5 7 10 10 10 10 10 10
10 10 10 13 13 14 11 12 9 10 14 16 18 19 18 17 19 18 16 15 13 13 11 11 9 8 8 8 6 1 5 7 5 4 8 4 6 8 8 8 8 8 8
9 11 11 10 10 9 7 11 10 9 12 18 18 15 18 13 12 14 11 13 12 12 10 9 9 8 7 6 4 1 5 8 3 2 5 4 7 7 6 6 6 5 6
6 6 7 12 2 8 8 7 9 10 13 17 14 13 15 8 9 12 8 11 13 11 10 9 8 7 6 5 4 3 5 4 5 3 3 9 5 5 4 3 3 3 4
7 9 5 6 9 8 8 7 6 8 7 9 10 11 9 9 8 10 8 10 12 10 9 8 7 6 6 4 4 5 3 5 2 4 3 9 6 3 3 2 1 1 0
4 6 11 8 8 6 6 8 5 6 8 7 13 9 12 9 7 6 5 4 4 6 4 5 4 4 6 4 4 4 5 1 0 3 6 10 7 4 3 4 5 4 4
7 7 9 10 7 8 3 9 9 8 8 8 11 10 10 6 8 8 6 5 5 4 6 6 4 6 6 2 4 5 5 3 3 3 5 11 9 6 5 6 6 7 8
7 11 13 12 7 8 11 12 11 10 10 9 8 9 9 9 6 8 8 7 6 6 5 6 5 4 5 5 5 3 3 6 6 3 4 10 11 10 8 7 8 9 10
8 4 6 12 13 8 9 18 12 10 8 10 9 7 8 8 5 5 6 5 5 5 4 4 5 4 4 4 4 5 5 3 2 2 5 6 11 11 11 10 10 8 8
6 5 8 11 10 6 10 14 6 9 11 7 5 7 7 7 6 6 5 4 5 4 5 3 2 3 3 2 3 2 3 5 3 5 5 5 6 10 10 9 8 7 7
9 10 6 11 17 4 7 8 7 5 8 9 7 5 7 8 8 6 5 5 5 5 4 4 3 2 2 2 3 4 3 3 5 5 2 4 5 4 6 8 7 7 8
9 10 10 11 17 15 9 9 13 6 5 7 8 7 7 8 7 5 4 5 6 4 4 3 3 3 3 3 3 4 4 3 1 2 4 5 4 5 3 4 7 8 7
9 12 13 11 14 15 10 9 5 4 5 4 5 7 9 7 7 5 4 5 5 4 4 3 4 3 3 3 3 4 4 2 2 4 4 3 5 5 4 1 0 2 1
5 9 14 15 15 15 7 7 6 6 3 4 6 7 9 6 7 6 4 4 5 5 4 4 3 5 3 3 1 3 3 4 5 2 3 3 4 2 2 2 2 3 1
9 10 13 15 7 6 7 3 3 3 3 3 4 4 6 6 7 6 5 3 4 4 5 3 2 1 1 3 2 1 2 4 2 4 3 3 2 0 1 3 4 3 4
11 11 7 6 5 3 5 5 4 4 2 3 2 3 3 6 5 6 6 3 3 2 4 3 4 5 2 3 2 2 2 4 1 3 1 3 3 0 0 3 3 4 5
11 11 6 6 6 5 5 4 5 4 4 2 2 2 5 6 2 4 6 5 5 2 3 3 4 4 5 4 2 4 3 2 2 1 2 2 1 2 1 2 4 5 3
6 11 8 8 3 5 7 7 6 7 3 1 3 6 3 4 4 2 5 5 7 4 4 4 5 5 4 3 3 3 3 2 2 2 3 3 1 3 2 2 2 2 5
8 10 7 5 6 7 6 9 7 5 4 3 1 3 3 4 4 6 5 7 9 6 7 9 9 8 8 7 5 4 4 4 3 3 3 3 3 2 1 2 2 3 3
Wind_Direction
142 144 155 157 155 154 154 151 146 144 156 150 147 143 136 131 132 132 134 136 139 130 116 107 101 96 92 91 88 84 84 88 88 85 72 64 65 61 62 66 65 65 63
136 146 154 158 158 158 158 154 148 148 155 153 149 150 142 136 138 135 140 144 127 124 117 112 105 98 93 93 91 87 89 96 101 104 97 71 57 65 61 71 77 75 62
135 147 152 158 156 161 160 156 151 154 154 155 151 153 147 140 142 139 128 134 120 120 115 112 104 102 98 93 91 90 96 94 90 124 93 95 68 68 67 57 57 72 61
136 145 153 155 154 161 161 158 159 163 161 159 156 154 152 144 145 143 139 129 120 118 117 113 109 103 101 100 99 99 100 72 10 307 87 84 75 71 68 71 60 60 57
134 154 150 156 153 161 161 157 163 169 167 162 162 155 155 146 147 145 145 134 116 127 124 110 103 108 109 107 107 112 92 21 351 56 54 76 73 71 69 65 64 62 61
144 153 144 152 154 158 158 159 165 169 169 165 164 158 154 144 149 145 141 125 120 114 124 124 120 117 115 113 112 113 75 350 336 101 84 74 69 80 74 70 68 66 63
147 136 145 150 155 158 159 159 166 169 167 170 167 164 153 141 146 142 143 121 115 131 137 138 128 122 119 116 116 108 18 347 100 92 87 81 79 83 79 74 71 69 66
137 148 150 149 154 155 164 153 159 164 167 170 169 161 149 139 150 145 139 135 129 124 121 129 131 126 123 119 108 58 351 359 18 97 98 94 93 90 84 78 71 67 64
139 146 148 144 148 152 161 149 160 161 168 169 157 150 138 138 153 150 143 140 135 130 127 124 125 126 129 123 117 71 323 325 330 115 116 109 103 94 89 82 74 69 66
59 58 23 146 148 149 155 151 149 153 153 150 144 139 124 126 138 149 123 137 142 129 123 124 128 127 125 127 128 169 298 315 310 105 110 115 114 104 96 90 90 83 74
112 69 54 29 155 169 155 157 138 132 119 121 124 128 124 133 144 153 127 135 138 131 132 133 135 132 136 144 156 210 260 272 246 131 112 129 133 123 118 113 86 73 70
160 136 83 45 4 257 161 155 149 140 138 142 140 161 128 143 145 152 135 137 129 130 136 143 149 167 184 193 187 224 245 264 80 97 121 138 151 175 171 177 182 211 149
184 149 145 134 183 322 203 168 169 162 156 156 160 177 145 162 152 133 131 140 123 148 159 154 171 205 217 217 200 202 232 233 231 131 151 150 168 199 232 232 231 245 241
190 202 150 148 91 288 277 180 173 174 175 171 169 183 153 146 152 143 147 161 165 181 185 182 191 208 224 230 224 232 175 195 246 143 159 158 171 201 229 254 262 260 248
211 202 167 150 178 198 267 210 170 184 175 161 161 188 154 151 158 153 165 171 175 178 194 190 196 185 179 215 226 208 225 204 221 166 157 174 178 189 209 233 254 266 270
229 185 190 165 157 207 261 218 177 169 164 156 171 171 133 146 158 151 156 158 176 167 176 177 185 199 198 198 225 213 233 251 205 142 148 186 186 194 203 215 233 256 278
203 180 200 189 163 181 274 194 175 160 158 142 137 135 139 139 145 146 145 158 162 160 187 187 224 165 219 189 210 251 220 251 244 207 195 166 184 205 209 225 238 265 290
164 180 166 151 122 71 234 238 192 159 134 147 150 145 151 151 152 156 160 162 176 164 164 157 183 163 236 216 224 240 242 230 242 261 204 157 175 177 207 222 236 254 268
177 159 154 165 134 156 235 223 208 171 136 143 153 162 159 159 158 154 168 171 162 151 152 172 185 163 202 223 226 243 229 194 130 309 268 221 123 103 111 104 215 246 261
159 165 176 181 157 147 211 186 189 204 162 148 163 163 169 156 157 162 164 165 139 134 162 173 188 207 197 218 225 225 234 146 251 254 254 105 108 100 96 135 344 331 214
197 185 181 172 195 154 167 159 142 162 205 148 169 162 164 159 157 158 154 156 146 162 142 98 185 196 212 231 37 331 295 227 226 252 126 90 93 116 152 123 75 34 356
222 190 193 164 162 127 151 147 137 140 128 134 113 114 146 144 145 145 140 152 128 133 129 126 114 67 110 70 135 326 291 315 310 189 123 123 141 176 161 102 79 66 39
204 195 191 140 118 162 158 145 114 97 63 92 115 143 136 150 164 151 134 152 169 161 187 175 158 156 191 96 96 141 308 235 237 346 56 126 118 124 82 120 99 89 65
207 169 159 142 152 116 75 100 104 103 104 42 86 58 30 14 156 147 141 161 144 211 198 217 182 178 176 159 137 130 126 251 193 290 348 337 304 217 138 63 48 51 72
178 128 161 136 103 110 92 68 75 51 129 119 145 99 83 289 283 179 180 157 177 181 202 185 230 197 171 139 110 135 171 237 227 128 249 275 303 213 190 128 80 51 62
68 87 104 119 111 102 127 127 118 215 175 148 157 151 206 211 223 217 204 208 203 186 197 203 209 231 254 136 163 186 175 162 191 178 214 214 225 267 139 150 139 105 90